[[{"header":{"parameterUnit":"m.s-1","parameterCategory":1,"la1":30.2991,"la2":30.254,"lo1":-89.0895,"lo2":-89.0444,"dy":0.0017,"dx":0.0017,"nx":28,"ny":28,"refTime":"2024-05-19T21:00:00:Z","depth":0,"parameterNumber":2,"parameterNumberName":"U-component_of_WINDS"},"data":[0,0,0,0,0,0,0,0,0,0,0,0,0,0,0,0,0,0,0,0,0,0,0,0,0,0,0,0,0,0,0,0,0,0,0,0,0,0,0,0,0,0,0,0,0,0,0,0,0,0,0,0,0,0,0,0,0,0,-1.9629,-1.963,0,-1.9685,-1.9686,-1.9687,-1.9675,-1.9674,-1.9673,-1.9672,-1.973,-1.9732,-1.9734,0,0,0,0,0,0,0,0,0,0,0,0,0,-1.9513,-1.9515,-1.9629,-1.963,-1.9631,-1.9685,-1.9686,-1.9687,-1.9676,-1.9674,-1.9673,-1.9672,-1.9729,-1.9732,-1.9735,0,0,0,0,0,0,0,0,0,0,0,0,0,-1.9566,-1.9516,-1.9629,-1.9632,-1.9633,-1.9685,-1.9686,-1.9687,-1.9676,-1.9674,-1.9673,-1.9671,-1.9728,-1.9731,-1.9735,-1.9788,0,0,-1.9746,-1.9748,0,0,0,0,0,0,0,0,-1.9563,-1.957,-1.9631,-1.9632,-1.9633,-1.9672,-1.9666,-1.9721,-1.9676,-1.9659,-1.9672,-1.9671,-1.9712,-1.9717,-1.973,-1.9791,-1.9794,-1.9747,-1.9749,-1.9751,-1.9752,0,0,0,0,0,0,0,-1.9559,-1.9568,-1.9651,-1.9632,-1.9633,-1.963,-1.9636,-1.9676,-1.9693,-1.9661,-1.966,-1.9667,-1.9712,-1.9727,-1.9732,-1.9794,-1.9747,-1.975,-1.9752,-1.9754,-1.9902,-1.9903,0,0,0,0,0,0,-1.9555,-1.9565,-1.965,-1.9653,-1.9593,-1.9634,-1.964,-1.9661,-1.9693,-1.9696,-1.9668,-1.9666,-1.9721,-1.9727,-1.9734,-1.9798,-1.9751,-1.9754,-1.9756,-1.99,-1.9902,-1.9904,0,0,0,0,0,0,-1.9552,-1.9562,-1.9647,-1.9609,-1.9619,-1.9637,-1.9661,-1.9663,-1.9678,-1.9698,-1.9701,-1.968,-1.972,-1.9728,-1.9775,-1.98,-1.9756,-1.9759,-1.9898,-1.9901,-1.9903,-1.9927,0,0,0,0,0,0,-1.9549,-1.9561,-1.9582,-1.9609,-1.9621,-1.9688,-1.9662,-1.9665,-1.9684,-1.9682,-1.9711,-1.9714,-1.972,-1.9769,-1.9779,-1.9804,-1.9762,-1.9896,-1.9899,-1.9902,-1.9924,-1.993,-1.9935,0,0,0,0,0,-1.9545,-1.9586,-1.9583,-1.9593,-1.9647,-1.9689,-1.9696,-1.9702,-1.9686,-1.9707,-1.972,-1.9713,-1.9796,-1.9774,-1.9784,-1.9811,-1.9894,-1.9898,-1.9902,-1.9922,-1.9929,-1.9935,0,0,0,0,0,0,-1.9561,-1.959,-1.9586,-1.9638,-1.9661,-1.9687,-1.9713,-1.971,-1.9738,-1.9735,-1.9741,-1.9747,-1.9794,-1.9808,-1.9783,-1.9865,-1.9843,-1.9849,-1.9854,-1.9861,-1.9867,-1.9862,-1.9765,0,0,0,0,0,-1.9571,-1.9603,-1.9626,-1.967,-1.9681,-1.9696,-1.9714,-1.9717,-1.9741,-1.975,-1.9767,-1.9791,-1.9822,-1.9843,-1.9873,-1.9926,-1.9932,-1.995,-1.9955,-1.996,-1.9965,-1.9994,-2.0002,-1.9917,-1.9916,-1.9916,0,0,-1.9591,-1.9611,-1.9631,-1.9673,-1.9692,-1.9724,-1.9704,-1.9739,-1.9763,-1.9756,-1.98,-1.9814,-1.9841,-1.9891,-1.9914,-1.9903,-1.999,-1.9965,-1.9968,-1.9971,-1.9999,-2.0007,-2.0014,-1.9919,-1.9919,-1.9918,0,0,-1.9645,-1.9663,-1.9701,-1.972,-1.9748,-1.9757,-1.9766,-1.9793,-1.9801,-1.9846,-1.9841,-1.987,-1.9924,-1.9943,-1.996,-2.0022,-2.0016,-2.0031,-2.006,-2.0089,-2.0095,-2.0101,-2.0123,-2.013,-2.0036,-2.0037,-2.0037,0,-1.9667,-1.9715,-1.9721,-1.9757,-1.9776,-1.9771,-1.9809,-1.9827,-1.9864,-1.9877,-1.9865,-1.9932,-1.995,-2.0004,-2.0019,-2.0034,-2.0044,-2.0028,-2.0094,-2.01,-2.0106,-2.0126,-2.0134,-2.0038,-2.0038,-2.0038,-2.0038,0,-1.974,-1.9774,-1.9802,-1.9837,-1.9859,-1.9896,-1.9907,-1.9929,-1.993,-1.9941,-1.9987,-2.0008,-2.0042,-2.0055,-2.0056,-2.011,-2.0103,-2.0092,-2.007,-2.0115,-2.0134,-2.0142,-2.004,-2.004,-2.0039,-2.0039,0,0,-1.9805,-1.9843,-1.9853,-1.9869,-1.99,-1.9926,-1.9963,-1.9996,-2.0015,-2.004,-2.0071,-2.0117,-2.0107,-2.0127,-2.013,-2.0155,-2.0202,-2.0141,-2.0142,-2.0151,-2.0262,-2.0269,-2.0278,-2.0198,-2.02,-2.0201,-2.0259,0,-1.9861,-1.9926,-1.9932,-1.999,-2.0022,-2.0018,-2.005,-2.0072,-2.0083,-2.0111,-2.0123,-2.0156,-2.0141,-2.0152,-2.0177,-2.0191,-2.0224,-2.0187,-2.0227,-2.0228,-2.0219,-2.0288,-2.0295,-2.0349,-2.0267,-2.0268,-2.0269,0,-1.9935,-1.9962,-2.0023,-2.0049,-2.0063,-2.0091,-2.0122,-2.015,-2.0175,-2.0181,-2.0203,-2.0203,-2.0241,-2.0218,-2.027,-2.0245,-2.0262,-2.0271,-2.0274,-2.0277,-2.0251,-2.0292,-2.0366,-2.0374,-2.0281,-2.028,-2.0279,0,-1.9975,-2.0027,-2.0071,-2.0084,-2.0116,-2.0136,-2.015,-2.0174,-2.0194,-2.0221,-2.0234,-2.0266,-2.0283,-2.0307,-2.0316,-2.0298,-2.0368,-2.0345,-2.0373,-2.0373,-2.0387,-2.0386,-2.0464,-2.04,-2.04,-2.04,-2.0399,0,-2.0036,-2.0074,-2.0089,-2.0116,-2.0157,-2.0165,-2.0206,-2.0219,-2.024,-2.0269,-2.0268,-2.0295,-2.0306,-2.0335,-2.0342,-2.0384,-2.0392,-2.0398,-2.0399,-2.0397,-2.0396,-2.0408,-2.0404,-2.0402,-2.0401,-2.0401,-2.04,0,-2.0088,-2.01,-2.0147,-2.0173,-2.0181,-2.021,-2.0233,-2.0258,-2.0269,-2.0306,-2.0315,-2.0332,-2.0366,-2.0377,-2.0418,-2.0423,-2.0472,-2.0471,-2.0463,-2.0463,-2.049,-2.0487,-2.0578,-2.059,-2.0518,-2.0519,-2.0519,0,-2.0126,-2.0154,-2.0184,-2.0203,-2.0218,-2.0249,-2.0269,-2.0278,-2.0299,-2.033,-2.0352,-2.0385,-2.0413,-2.0468,-2.0483,-2.0515,-2.0514,-2.0543,-2.0519,-2.0516,-2.0513,-2.0511,-2.0514,-2.0548,-2.0548,-2.0549,-2.055,0,-2.0192,-2.0196,-2.0225,-2.0256,-2.028,-2.0305,-2.0329,-2.0345,-2.0357,-2.0381,-2.0415,-2.0437,-2.0479,-2.0512,-2.0545,-2.0559,-2.0557,-2.0557,-2.0565,-2.0564,-2.0558,-2.0561,-2.0475,-2.0555,-2.0555,-2.0554,-2.0554,-2.0554,-2.0237,-2.0262,-2.0287,-2.0319,-2.0338,-2.0361,-2.0386,-2.04,-2.0429,-2.0464,-2.0467,-2.0505,-2.0529,-2.0572,-2.0589,-2.0618,-2.061,-2.0622,-2.0624,-2.0627,-2.0629,-2.0554,-2.0624,-2.0624,-2.0624,-2.0624,-2.0624,0,-2.0302,-2.0318,-2.0347,-2.0381,-2.0407,-2.0402,-2.0428,-2.045,-2.0483,-2.0506,-2.0533,-2.0573,-2.0605,-2.0624,-2.0657,-2.0677,-2.0676,-2.0685,-2.0683,-2.0686,-2.0635,-2.0624,-2.0685,-2.0685,-2.0685,-2.0685,-2.0685,-2.0685,-2.0339,-2.0381,-2.0389,-2.044,-2.0456,-2.0492,-2.0508,-2.0528,-2.0547,-2.0591,-2.0618,-2.0631,-2.0652,-2.0686,-2.0716,-2.072,-2.0732,-2.0742,-2.0745,-2.0696,-2.069,-2.0684,-2.0674,-2.0744,-2.0744,-2.0795,-2.0795,-2.0795]},{"header":{"parameterUnit":"m.s-1","parameterCategory":1,"la1":30.2991,"la2":30.254,"lo1":-89.0895,"lo2":-89.0444,"dy":0.0017,"dx":0.0017,"nx":28,"ny":28,"refTime":"2024-05-19T21:00:00:Z","depth":0,"parameterNumber":3,"parameterNumberName":"V-component_of_WINDS"},"data":[0,0,0,0,0,0,0,0,0,0,0,0,0,0,0,0,0,0,0,0,0,0,0,0,0,0,0,0,0,0,0,0,0,0,0,0,0,0,0,0,0,0,0,0,0,0,0,0,0,0,0,0,0,0,0,0,0,0,1.1527,1.1527,0,1.1497,1.1496,1.1496,1.1453,1.1453,1.1452,1.1451,1.1418,1.1418,1.1418,0,0,0,0,0,0,0,0,0,0,0,0,0,1.1548,1.1548,1.1527,1.1527,1.1526,1.1497,1.1496,1.1496,1.1453,1.1453,1.1452,1.1451,1.1419,1.1418,1.1418,0,0,0,0,0,0,0,0,0,0,0,0,0,1.153,1.1548,1.1527,1.1502,1.1499,1.1497,1.1496,1.1496,1.1454,1.1453,1.1451,1.145,1.1419,1.1418,1.1418,1.1438,0,0,1.1417,1.1417,0,0,0,0,0,0,0,0,1.1531,1.153,1.1506,1.1503,1.1501,1.1478,1.1492,1.1476,1.1454,1.1471,1.1451,1.145,1.1439,1.1437,1.1434,1.1437,1.1435,1.1417,1.1417,1.1417,1.1417,0,0,0,0,0,0,0,1.1533,1.1531,1.1515,1.1506,1.1502,1.1492,1.1488,1.1489,1.1461,1.1469,1.1466,1.1463,1.1437,1.1434,1.1433,1.1435,1.1417,1.1417,1.1417,1.1417,1.1454,1.1455,0,0,0,0,0,0,1.1538,1.1532,1.1516,1.1514,1.1514,1.1492,1.1488,1.1486,1.1461,1.1456,1.1464,1.1461,1.1435,1.1433,1.1431,1.1454,1.1417,1.1417,1.1416,1.1452,1.1454,1.1455,0,0,0,0,0,0,1.1538,1.1537,1.1517,1.1522,1.1519,1.1493,1.1491,1.1486,1.1483,1.1457,1.1452,1.1466,1.1434,1.1432,1.1437,1.1452,1.1416,1.1416,1.1451,1.1453,1.1454,1.1498,0,0,0,0,0,0,1.1539,1.1537,1.1545,1.1523,1.1519,1.1524,1.1492,1.1486,1.1483,1.1479,1.1458,1.1453,1.1433,1.1438,1.1437,1.1451,1.1416,1.145,1.1452,1.1454,1.1495,1.1501,1.1506,0,0,0,0,0,1.154,1.1558,1.1545,1.1544,1.1528,1.1525,1.1523,1.15,1.1484,1.1491,1.1475,1.1454,1.1451,1.1439,1.1437,1.1451,1.1449,1.1451,1.1454,1.1493,1.15,1.1506,0,0,0,0,0,0,1.1581,1.1554,1.154,1.1551,1.1541,1.1518,1.1526,1.1508,1.1501,1.1498,1.1469,1.1465,1.1474,1.1463,1.145,1.147,1.1446,1.1449,1.1477,1.1483,1.1489,1.1491,1.1416,0,0,0,0,0,1.1592,1.1592,1.1568,1.158,1.1576,1.1552,1.155,1.1534,1.1521,1.1516,1.1501,1.1489,1.1486,1.1484,1.1479,1.1494,1.1489,1.1503,1.1508,1.1513,1.1515,1.1523,1.1529,1.1464,1.1464,1.1463,0,0,1.1613,1.1598,1.16,1.1588,1.1578,1.1579,1.1549,1.155,1.1551,1.1516,1.1521,1.1509,1.1495,1.1505,1.1509,1.1496,1.1533,1.1516,1.152,1.152,1.1526,1.1533,1.1538,1.1465,1.1465,1.1465,0,0,1.1652,1.1641,1.165,1.1641,1.1627,1.1611,1.1614,1.1593,1.1585,1.1589,1.1563,1.1563,1.1558,1.1549,1.1543,1.1581,1.1561,1.158,1.1609,1.1617,1.1622,1.1626,1.164,1.1645,1.1583,1.1583,1.1583,0,1.168,1.1681,1.1657,1.1661,1.1657,1.1627,1.1636,1.1628,1.1613,1.1611,1.1597,1.159,1.1578,1.1587,1.1596,1.1593,1.1595,1.1582,1.1623,1.1627,1.1631,1.1644,1.1649,1.1585,1.1585,1.1585,1.1585,0,1.1717,1.1718,1.1727,1.1714,1.171,1.1717,1.1694,1.1694,1.1678,1.1664,1.1669,1.1654,1.1646,1.1647,1.1631,1.1653,1.1646,1.1628,1.1604,1.164,1.1652,1.1656,1.1589,1.1588,1.1587,1.1587,0,0,1.178,1.1755,1.1758,1.1753,1.1735,1.1735,1.1741,1.1734,1.1734,1.1725,1.1729,1.1726,1.171,1.1704,1.1687,1.1694,1.1725,1.1675,1.1674,1.1685,1.175,1.1763,1.1769,1.1712,1.1713,1.1714,1.1751,0,1.1816,1.1824,1.1804,1.1817,1.1818,1.179,1.1795,1.1785,1.1772,1.1771,1.1756,1.1755,1.1733,1.173,1.1735,1.172,1.1738,1.1717,1.1716,1.1716,1.172,1.1775,1.1789,1.1825,1.1755,1.1756,1.1756,0,1.1859,1.1853,1.1867,1.1849,1.1849,1.1854,1.1846,1.1845,1.1834,1.1824,1.1818,1.1799,1.1803,1.1781,1.1786,1.1773,1.1771,1.1764,1.1765,1.1763,1.1738,1.1775,1.1835,1.1841,1.1763,1.1763,1.1762,0,1.1904,1.1899,1.1907,1.1903,1.1883,1.1887,1.1879,1.1866,1.1863,1.1857,1.1855,1.1849,1.1846,1.1842,1.1821,1.1807,1.183,1.1805,1.1822,1.1823,1.1827,1.1827,1.1888,1.1827,1.1827,1.1827,1.1827,0,1.1946,1.1956,1.1927,1.1932,1.1942,1.1919,1.1929,1.1918,1.1907,1.191,1.1885,1.1888,1.1861,1.186,1.1845,1.1852,1.1851,1.1843,1.1839,1.1845,1.1846,1.1843,1.184,1.1828,1.1828,1.1827,1.1827,0,1.1998,1.198,1.1986,1.1967,1.1963,1.1971,1.1955,1.1958,1.1945,1.1948,1.1947,1.1925,1.1924,1.1904,1.1897,1.1887,1.1901,1.1892,1.1905,1.1902,1.192,1.1919,1.1981,1.1988,1.1922,1.1923,1.1924,0,1.2027,1.2033,1.2016,1.2016,1.2009,1.2009,1.2007,1.1984,1.1983,1.197,1.1976,1.1973,1.1969,1.1968,1.1951,1.1947,1.1937,1.196,1.1936,1.1943,1.1938,1.1938,1.1939,1.1964,1.1965,1.1966,1.1966,0,1.2079,1.2069,1.2067,1.2062,1.206,1.2055,1.2048,1.205,1.2025,1.2025,1.2023,1.202,1.2015,1.2012,1.2005,1.1996,1.1977,1.1974,1.1978,1.1984,1.1992,1.1988,1.1918,1.1972,1.1972,1.1971,1.1971,1.1971,1.212,1.2125,1.2113,1.2112,1.2105,1.2099,1.2102,1.2089,1.2088,1.2082,1.2068,1.2069,1.2058,1.2047,1.204,1.2041,1.2029,1.2034,1.2036,1.2037,1.2041,1.1992,1.2039,1.2039,1.2039,1.2038,1.2038,0,1.2171,1.2162,1.2161,1.2153,1.2152,1.2135,1.2127,1.2128,1.2129,1.212,1.2117,1.2116,1.2114,1.2098,1.2094,1.2097,1.2089,1.2097,1.2096,1.2095,1.2051,1.2049,1.2104,1.2104,1.2104,1.2104,1.2104,1.2104,1.2197,1.2205,1.2195,1.2199,1.219,1.2192,1.2189,1.2184,1.2177,1.2177,1.2175,1.2165,1.2153,1.2148,1.2146,1.2141,1.2141,1.2152,1.2144,1.2104,1.2098,1.2092,1.2089,1.2152,1.2152,1.2188,1.2188,1.2188]}]]